Location: São Paulo
(23.5507°S, 46.6334°W)
Time: 03:49:04
(UTC-03:00)

Courier 1B - All Passes

Search period start: 18 February 2026 00:00
Search period end: 28 February 2026 00:00
Orbit: 962 x 1208 km, 28.3° (Epoch: 17 February)

Date Brightness Start Highest point End Pass type
(mag) Time Alt. Az. Time Alt. Az. Time Alt. Az.
18 Feb - 04:08:31 10° NNW 04:13:33 19° NNE 04:18:24 10° ENE visible
18 Feb - 06:00:21 10° NW 06:07:28 56° NNE 06:14:10 10° E daylight
18 Feb - 07:54:37 10° W 08:01:39 72° SSW 08:08:18 10° ESE daylight
18 Feb - 09:49:30 10° WSW 09:56:09 57° S 10:02:33 10° E daylight
18 Feb - 11:43:55 10° WSW 11:50:31 84° SSE 11:57:02 10° ENE daylight
18 Feb - 13:38:24 10° W 13:44:23 40° NNW 13:50:28 10° NE daylight
18 Feb - 15:36:33 10° NW 15:38:04 11° NNW 15:39:35 10° NNW daylight
19 Feb - 03:16:03 10° N 03:19:36 14° NNE 03:23:04 10° ENE visible
19 Feb - 05:06:34 10° NW 05:13:33 44° NNE 05:20:09 10° E visible
19 Feb - 07:00:25 10° WNW 07:07:39 83° SSW 07:14:28 10° ESE daylight
19 Feb - 08:55:21 10° W 09:02:08 58° S 09:08:36 10° ESE daylight
19 Feb - 10:49:57 10° WSW 10:56:37 72° SSE 11:03:06 10° E daylight
19 Feb - 12:44:18 10° W 12:50:36 52° NNW 12:56:55 10° NE daylight
19 Feb - 14:40:27 10° WNW 14:44:15 16° NNW 14:48:06 10° N daylight
20 Feb - 04:12:57 10° NNW 04:19:37 34° NNE 04:25:58 10° E visible
20 Feb - 06:06:16 10° WNW 06:13:41 83° NNE 06:20:37 10° ESE daylight
20 Feb - 08:01:06 10° W 08:08:06 61° S 08:14:42 10° ESE daylight
20 Feb - 09:55:55 10° WSW 10:02:40 64° S 10:09:08 10° E daylight
20 Feb - 11:50:17 10° WSW 11:56:49 68° NNW 12:03:15 10° ENE daylight
20 Feb - 13:45:35 10° W 13:50:29 23° NNW 13:55:26 10° NNE daylight
21 Feb - 03:19:34 10° NNW 03:25:40 26° NNE 03:31:32 10° E visible
21 Feb - 05:12:12 10° WNW 05:19:41 68° NNE 05:26:44 10° ESE visible
21 Feb - 07:06:49 10° W 07:14:03 66° S 07:20:50 10° ESE daylight
21 Feb - 09:01:48 10° WSW 09:08:39 60° S 09:15:10 10° E daylight
21 Feb - 10:56:16 10° WSW 11:02:59 84° NNW 11:09:29 10° ENE daylight
21 Feb - 12:51:06 10° W 12:56:44 31° NNW 13:02:20 10° NNE daylight
22 Feb - 02:26:33 10° N 02:31:42 19° NNE 02:36:43 10° ENE visible
22 Feb - 04:18:15 10° NW 04:25:42 54° NNE 04:32:45 10° E visible
22 Feb - 06:12:32 10° W 06:19:59 75° SSW 06:26:59 10° ESE daylight
22 Feb - 08:07:35 10° WSW 08:14:37 58° S 08:21:13 10° E daylight
22 Feb - 10:02:13 10° WSW 10:09:05 81° SSE 10:15:38 10° ENE daylight
22 Feb - 11:56:50 10° W 12:02:59 42° NNW 12:09:02 10° NE daylight
22 Feb - 13:54:39 10° NW 13:56:33 11° NNW 13:58:27 10° NNW daylight
23 Feb - 01:34:14 10° N 01:37:42 13° NNE 01:41:08 10° ENE visible
23 Feb - 03:24:28 10° NW 03:31:42 43° NNE 03:38:38 10° E visible
23 Feb - 05:18:17 10° WNW 05:25:55 86° SSW 05:33:06 10° ESE visible
23 Feb - 07:13:18 10° W 07:20:31 59° S 07:27:17 10° ESE daylight
23 Feb - 09:08:08 10° WSW 09:15:08 71° SSE 09:21:44 10° E daylight
23 Feb - 11:02:39 10° W 11:09:12 56° NNW 11:15:32 10° NE daylight
23 Feb - 12:58:45 10° WNW 13:02:47 17° NNW 13:06:48 10° N daylight
24 Feb - 02:30:54 10° NNW 02:37:43 33° NNE 02:44:20 10° E visible
24 Feb - 04:24:06 10° WNW 04:31:51 80° NNE 04:39:12 10° ESE visible
24 Feb - 06:18:59 10° W 06:26:24 63° S 06:33:22 10° ESE daylight
24 Feb - 08:13:58 10° WSW 08:21:06 64° S 08:27:48 10° E daylight
24 Feb - 10:08:31 10° WSW 10:15:24 72° NNW 10:21:54 10° ENE daylight
24 Feb - 12:03:52 10° W 12:09:03 24° NNW 12:14:08 10° NNE daylight
25 Feb - 01:37:36 10° NNW 01:43:43 25° NNE 01:49:45 10° E visible
25 Feb - 03:30:03 10° WNW 03:37:48 66° NNE 03:45:13 10° ESE visible
25 Feb - 05:24:38 10° W 05:32:16 69° S 05:39:27 10° ESE visible
25 Feb - 07:19:44 10° WSW 07:27:01 60° S 07:33:50 10° E daylight
25 Feb - 09:14:24 10° WSW 09:21:30 88° NNW 09:28:09 10° ENE daylight
25 Feb - 11:09:21 10° W 11:15:19 34° NNW 11:21:04 10° NE daylight
26 Feb - 00:44:44 10° N 00:49:44 18° NNE 00:54:43 10° ENE night (unlit)
26 Feb - 02:36:09 10° NW 02:43:45 53° NNE 02:51:08 10° E visible
26 Feb - 04:30:19 10° W 04:38:07 78° SSW 04:45:32 10° ESE visible
26 Feb - 06:25:26 10° W 06:32:54 60° S 06:39:52 10° E daylight
26 Feb - 08:20:15 10° WSW 08:27:31 79° SSE 08:34:19 10° ENE daylight
26 Feb - 10:15:00 10° W 10:21:32 45° NNW 10:27:46 10° NE daylight
26 Feb - 12:12:24 10° WNW 12:15:04 13° NNW 12:17:43 10° N daylight
26 Feb - 23:52:47 10° N 23:55:45 12° NNE 23:58:43 10° NE night (unlit)
27 Feb - 01:42:27 10° NW 01:49:43 41° NNE 01:56:53 10° E visible
27 Feb - 03:36:05 10° WNW 03:43:59 89° SSW 03:51:35 10° ESE visible
27 Feb - 05:31:06 10° W 05:38:43 61° S 05:45:53 10° ESE visible
27 Feb - 07:26:04 10° WSW 07:33:29 70° S 07:40:24 10° E daylight
27 Feb - 09:20:44 10° WSW 09:27:43 60° NNW 09:34:17 10° NE daylight
27 Feb - 11:16:47 10° WNW 11:21:20 19° NNW 11:25:45 10° N daylight
